Regional Weather Roundup
Issued by NWS

Home | Current Version | Previous Version | Graphics & Text | Print | Product List | Glossary On
Versions: 1 2 3 4 5 6 7 8 9 10 11 12 13 14 15 16 17 18 19 20 21 22 23 24 25 26 27 28 29 30 31 32 33 34 35 36 37 38 39 40 41 42 43 44 45 46 47 48 49 50
000
ASUS43 KTOP 301559
RWRKS

WEATHER ROUNDUP FOR KANSAS
NATIONAL WEATHER SERVICE GOODLAND KS
1100 AM CDT TUE JUN 30 2015

NOTE:  "FAIR" INDICATES FEW OR NO CLOUDS BELOW 12,000 FEET WITH NO
SIGNIFICANT WEATHER AND/OR OBSTRUCTIONS TO VISIBILITY.

KSZ001>006-013>018-027>032-041>047-301700-
NORTHWEST KANSAS

CITY           SKY/WX    TMP DP  RH WIND       PRES   REMARKS
GOODLAND       SUNNY     88  49  25 SW8       30.07F
HAYS           PTSUNNY   91  57  31 SW13      29.99F
HILL CITY      MOSUNNY   93  56  28 SW8       29.99F
RUSSELL        MOSUNNY   90  56  31 SW12      29.97F
$$

KSZ061>065-074>080-084>089-301700-
SOUTHWEST KANSAS

CITY           SKY/WX    TMP DP  RH WIND       PRES   REMARKS
DODGE CITY     MOSUNNY   88  58  36 W10       30.05F
ELKHART          N/A     88  54  31 SW9         N/A
GARDEN CITY    MOSUNNY   89  57  33 W14       30.06F
GREAT BEND     FAIR      88  63  42 W6        30.00F
LIBERAL        SUNNY     88  61  40 SW13        N/A
$$

KSZ066>073-081>083-090>101-301700-
SOUTHEAST KANSAS

CITY           SKY/WX    TMP DP  RH WIND       PRES   REMARKS
CHANUTE        SUNNY     84  65  52 CALM      29.97F
COFFEYVILLE    SUNNY     83  68  60 W6        29.98S
HUTCHINSON     SUNNY     91  59  33 W5        29.98F
NEWTON         SUNNY     88  61  40 W7        30.01F
PARSONS        SUNNY     84  70  62 S5        29.99S
WICHITA INTL   MOSUNNY   90  62  39 W5        29.98F
WICHITA JABRA  SUNNY     89  64  43 CALM      29.99F
WINFIELD       SUNNY     87  65  47 VRB3      30.00F
$$

KSZ007>012-019>026-033>040-048>060-102>105-301700-
NORTHEAST KANSAS

CITY           SKY/WX    TMP DP  RH WIND       PRES   REMARKS
CONCORDIA      MOSUNNY   87  63  44 SW9       29.96F
EMPORIA        SUNNY     87  65  47 W7        29.97F
LAWRENCE       SUNNY     82  67  60 NW6       29.95F
MANHATTAN      SUNNY     87  65  47 S3        29.95F
OLATHE IND     SUNNY     82  66  58 NW6       29.97S
OLATHE EXE     SUNNY     81  63  54 NW9       29.96S
SALINA         MOSUNNY   92  58  31 W3        29.96F
TOPEKA BILLARD SUNNY     82  67  60 CALM      29.95F
TOPEKA FORBES  SUNNY     85  64  49 NW3       29.96F
$$


USA.gov is the U.S. government's official web portal to all federal, state and local government web resources and services.